| time (UTC) | temp F | wind direction | speed MPH | gust MPH | rain 1hr in | rain 24hr in | rain mn in | humidity % | barometer mb |
| 20260902150052 | 57 | 284 | 0.0 | 0.0 | 0.00 | 0.00 | 0.00 | 66 | 1007.4 |
| 20260902144551 | 57 | 284 | 0.0 | 0.0 | 0.00 | 0.00 | 0.00 | 68 | 1007.5 |
| 20260902143050 | 57 | 284 | 0.0 | 2.0 | 0.00 | 0.00 | 0.00 | 69 | 1007.5 |
| 20260902141553 | 57 | 283 | 0.0 | 1.0 | 0.00 | 0.00 | 0.00 | 69 | 1007.3 |
| 20260902140046 | 0 | 0.0 | 0.0 | 0.00 | 0.00 | 0.00 | 1007.3 | ||
| 20260902134541 | 0 | 0.0 | 0.0 | 0.00 | 0.00 | 0.00 | 1007.4 | ||
| 20260902133046 | 0 | 0.0 | 0.0 | 0.00 | 0.00 | 0.00 | 1007.3 | ||
| 20260902131535 | 0 | 0.0 | 0.0 | 0.00 | 0.00 | 0.00 | 1007.4 | ||
| 20260902130027 | 0 | 0.0 | 0.0 | 0.00 | 0.00 | 0.00 | 1007.0 | ||
| 20260902124524 | 0 | 0.0 | 0.0 | 0.00 | 0.00 | 0.00 | 1007.0 | ||
| 20260902123024 | 0 | 0.0 | 0.0 | 0.00 | 0.00 | 0.00 | 1007.1 | ||
| 20260902121514 | 0 | 0.0 | 0.0 | 0.00 | 0.00 | 0.00 | 1007.0 | ||
| 20260902120010 | 0 | 0.0 | 0.0 | 0.00 | 0.00 | 0.00 | 1006.6 | ||
| 20260902114506 | 0 | 0.0 | 0.0 | 0.00 | 0.00 | 0.00 | 1006.5 | ||
| 20260902113002 | 0 | 0.0 | 0.0 | 0.00 | 0.00 | 0.00 | 1006.9 | ||
| 20260902111601 | 0 | 0.0 | 0.0 | 0.00 | 0.00 | 0.00 | 1006.9 | ||
| 20260902104553 | 0 | 0.0 | 0.0 | 0.00 | 0.00 | 0.00 | 1007.6 | ||
| 20260902103043 | 0 | 0.0 | 0.0 | 0.00 | 0.00 | 0.00 | 1007.5 | ||
| 20260902101541 | 0 | 0.0 | 0.0 | 0.00 | 0.00 | 0.00 | 1007.0 | ||
| 20260902100036 | 0 | 0.0 | 0.0 | 0.00 | 0.00 | 0.00 | 1006.9 | ||
| 20260902094538 | 0 | 0.0 | 0.0 | 0.00 | 0.00 | 0.00 | 1006.7 | ||
| 20260902093026 | 60 | 234 | 5.0 | 7.0 | 0.00 | 0.00 | 0.00 | 64 | 1006.8 |
| 20260902091523 | 60 | 233 | 3.0 | 9.0 | 0.00 | 0.00 | 0.00 | 64 | 1007.1 |
| 20260902090022 | 60 | 236 | 7.0 | 12.0 | 0.00 | 0.00 | 0.00 | 63 | 1007.3 |
| 20260902084524 | 61 | 233 | 10.0 | 12.0 | 0.00 | 0.00 | 0.00 | 63 | 1007.1 |
| 20260902083019 | 61 | 248 | 6.0 | 13.0 | 0.00 | 0.00 | 0.00 | 62 | 1007.0 |
| 20260902081516 | 61 | 211 | 6.0 | 11.0 | 0.00 | 0.00 | 0.00 | 61 | 1007.1 |
| 20260902080015 | 62 | 225 | 10.0 | 16.0 | 0.00 | 0.00 | 0.00 | 60 | 1007.2 |
| 20260902074514 | 62 | 215 | 9.0 | 14.0 | 0.00 | 0.00 | 0.00 | 60 | 1007.2 |
| 20260902073010 | 62 | 239 | 9.0 | 15.0 | 0.00 | 0.00 | 0.00 | 59 | 1007.0 |
| 20260902071507 | 62 | 252 | 7.0 | 12.0 | 0.00 | 0.00 | 0.00 | 59 | 1007.0 |
| 20260902070006 | 62 | 248 | 9.0 | 11.0 | 0.00 | 0.00 | 0.00 | 58 | 1006.8 |
| 20260902064502 | 63 | 242 | 9.0 | 13.0 | 0.00 | 0.00 | 0.00 | 57 | 1006.6 |
| 20260902063105 | 63 | 219 | 6.0 | 11.0 | 0.00 | 0.00 | 0.00 | 55 | 1006.4 |
| 20260902061612 | 64 | 224 | 9.0 | 13.0 | 0.00 | 0.00 | 0.00 | 54 | 1006.4 |
| 20260902060056 | 64 | 225 | 8.0 | 13.0 | 0.00 | 0.00 | 0.00 | 52 | 1006.2 |
| 20260902054554 | 65 | 245 | 12.0 | 16.0 | 0.00 | 0.00 | 0.00 | 51 | 1006.2 |
| 20260902053053 | 64 | 245 | 8.0 | 12.0 | 0.00 | 0.00 | 0.00 | 51 | 1006.1 |
| 20260902051550 | 65 | 246 | 10.0 | 13.0 | 0.00 | 0.00 | 0.00 | 48 | 1005.9 |
| 20260902050051 | 67 | 239 | 10.0 | 18.0 | 0.00 | 0.00 | 0.00 | 46 | 1005.6 |
| 20260902044549 | 67 | 246 | 10.0 | 14.0 | 0.00 | 0.00 | 0.00 | 45 | 1005.5 |
| 20260902043054 | 67 | 248 | 8.0 | 11.0 | 0.00 | 0.00 | 0.00 | 45 | 1005.3 |
| 20260902041548 | 68 | 257 | 8.0 | 12.0 | 0.00 | 0.00 | 0.00 | 43 | 1004.9 |
| 20260902040046 | 69 | 226 | 3.0 | 5.0 | 0.00 | 0.00 | 0.00 | 43 | 1004.5 |
| 20260902034546 | 69 | 256 | 3.0 | 9.0 | 0.00 | 0.00 | 0.00 | 42 | 1004.3 |
| 20260902033102 | 69 | 255 | 2.0 | 5.0 | 0.00 | 0.00 | 0.00 | 42 | 1004.0 |
| 20260902031545 | 69 | 280 | 2.0 | 4.0 | 0.00 | 0.00 | 0.00 | 42 | 1003.7 |
| 20260902030044 | 71 | 239 | 3.0 | 12.0 | 0.00 | 0.00 | 0.00 | 39 | 1003.4 |
| 20260902024543 | 71 | 285 | 7.0 | 11.0 | 0.00 | 0.00 | 0.00 | 38 | 1003.2 |
| 20260902023049 | 73 | 290 | 9.0 | 11.0 | 0.00 | 0.00 | 0.00 | 38 | 1002.7 |
| 20260902021543 | 74 | 283 | 8.0 | 11.0 | 0.00 | 0.00 | 0.00 | 36 | 1002.7 |
| 20260902020042 | 76 | 283 | 4.0 | 5.0 | 0.00 | 0.00 | 0.00 | 36 | 1002.7 |
| 20260902014542 | 77 | 298 | 5.0 | 6.0 | 0.00 | 0.00 | 0.00 | 35 | 1002.7 |
| 20260902013041 | 77 | 285 | 3.0 | 7.0 | 0.00 | 0.00 | 0.00 | 34 | 1002.7 |
| 20260902011540 | 78 | 285 | 6.0 | 8.0 | 0.00 | 0.00 | 0.00 | 34 | 1002.7 |
| 20260902010046 | 78 | 288 | 5.0 | 7.0 | 0.00 | 0.00 | 0.00 | 35 | 1002.5 |
| 20260902004538 | 78 | 307 | 5.0 | 8.0 | 0.00 | 0.00 | 0.00 | 35 | 1002.5 |
| 20260902003037 | 78 | 304 | 6.0 | 10.0 | 0.00 | 0.00 | 0.00 | 35 | 1002.5 |
| 20260902001536 | 78 | 290 | 7.0 | 10.0 | 0.00 | 0.00 | 0.00 | 34 | 1002.4 |
| 20260902000034 | 78 | 285 | 5.0 | 9.0 | 0.00 | 0.00 | 0.00 | 35 | 1002.5 |
| 20260901234532 | 78 | 281 | 3.0 | 13.0 | 0.00 | 0.00 | 0.00 | 36 | 1002.4 |
| 20260901233031 | 79 | 288 | 5.0 | 9.0 | 0.00 | 0.00 | 0.00 | 35 | 1002.5 |
| 20260901231528 | 79 | 338 | 7.0 | 10.0 | 0.00 | 0.00 | 0.00 | 36 | 1002.7 |
| 20260901230038 | 78 | 284 | 4.0 | 8.0 | 0.00 | 0.00 | 0.00 | 36 | 1002.8 |
| 20260901224523 | 78 | 253 | 5.0 | 10.0 | 0.00 | 0.00 | 0.00 | 36 | 1003.0 |
| 20260901223020 | 77 | 293 | 6.0 | 10.0 | 0.00 | 0.00 | 0.00 | 37 | 1003.3 |
| 20260901221516 | 76 | 213 | 3.0 | 6.0 | 0.00 | 0.00 | 0.00 | 39 | 1003.4 |
| 20260901220013 | 75 | 221 | 2.0 | 7.0 | 0.00 | 0.00 | 0.00 | 40 | 1003.5 |
| 20260901214512 | 75 | 217 | 4.0 | 6.0 | 0.00 | 0.00 | 0.00 | 40 | 1003.5 |
| 20260901213033 | 75 | 236 | 2.0 | 7.0 | 0.00 | 0.00 | 0.00 | 40 | 1003.7 |
| 20260901211516 | 75 | 255 | 3.0 | 10.0 | 0.00 | 0.00 | 0.00 | 39 | 1003.8 |
| 20260901210018 | 75 | 242 | 4.0 | 9.0 | 0.00 | 0.00 | 0.00 | 38 | 1004.0 |
| 20260901204509 | 75 | 194 | 5.0 | 9.0 | 0.00 | 0.00 | 0.00 | 38 | 1004.2 |
| 20260901203007 | 74 | 211 | 7.0 | 10.0 | 0.00 | 0.00 | 0.00 | 39 | 1004.5 |
| 20260901201501 | 72 | 260 | 4.0 | 13.0 | 0.00 | 0.00 | 0.00 | 43 | 1004.5 |
| 20260901200058 | 71 | 257 | 10.0 | 13.0 | 0.00 | 0.00 | 0.00 | 46 | 1004.6 |
| 20260901194557 | 71 | 250 | 10.0 | 15.0 | 0.00 | 0.00 | 0.00 | 46 | 1004.7 |
| 20260901193101 | 71 | 278 | 13.0 | 19.0 | 0.00 | 0.00 | 0.00 | 43 | 1004.5 |
| 20260901191559 | 71 | 293 | 5.0 | 11.0 | 0.00 | 0.00 | 0.00 | 37 | 1004.4 |
| 20260901190054 | 71 | 360 | 3.0 | 5.0 | 0.00 | 0.00 | 0.00 | 37 | 1004.2 |
| 20260901184553 | 70 | 75 | 3.0 | 4.0 | 0.00 | 0.00 | 0.00 | 38 | 1005.4 |
| 20260901183053 | 71 | 46 | 1.0 | 2.0 | 0.00 | 0.00 | 0.00 | 38 | 1005.7 |
| 20260901181548 | 70 | 332 | 3.0 | 5.0 | 0.00 | 0.00 | 0.00 | 39 | 1005.5 |
| 20260901180045 | 69 | 51 | 2.0 | 4.0 | 0.00 | 0.00 | 0.00 | 40 | 1005.2 |
| 20260901174543 | 68 | 127 | 1.0 | 3.0 | 0.00 | 0.00 | 0.00 | 40 | 1005.6 |
| 20260901173041 | 68 | 134 | 2.0 | 4.0 | 0.00 | 0.00 | 0.00 | 41 | 1005.6 |
| 20260901171539 | 67 | 205 | 1.0 | 5.0 | 0.00 | 0.00 | 0.00 | 42 | 1005.9 |
| 20260901170036 | 67 | 248 | 3.0 | 5.0 | 0.00 | 0.00 | 0.00 | 40 | 1005.8 |
| 20260901164537 | 66 | 229 | 3.0 | 6.0 | 0.00 | 0.00 | 0.00 | 42 | 1005.7 |
| 20260901163034 | 66 | 143 | 2.0 | 6.0 | 0.00 | 0.00 | 0.00 | 39 | 1005.0 |
| 20260901161536 | 65 | 89 | 2.0 | 4.0 | 0.00 | 0.00 | 0.00 | 41 | 1005.2 |
| 20260901160035 | 65 | 111 | 3.0 | 4.0 | 0.00 | 0.00 | 0.00 | 41 | 1005.0 |
| 20260901154527 | 64 | 86 | 4.0 | 4.0 | 0.00 | 0.00 | 0.00 | 41 | 1005.3 |
| 20260901153028 | 61 | 276 | 0.0 | 4.0 | 0.00 | 0.00 | 0.00 | 43 | 1005.5 |
| 20260901151526 | 63 | 276 | 3.0 | 5.0 | 0.00 | 0.00 | 0.00 | 42 | 1005.6 |